Theta_e
310 310 309 310 310 310 309 310 310 310 310 310 310 310 310 310 311 311 311 311 311 311 312 312 312 312 312 312 312 312 313 313 314 313 314 315 315 314 314 314 314 314 314 313 314 314 315 315 316 317 316 317 317 319 319 321 319 319 327 326 324 330 328 326 323 317 319 319 318 317 317 317 317 317 316 318 317 318 317 317 317 317 317 316 316 316 317 317
310 310 309 310 310 310 310 310 310 310 310 310 310 310 311 311 311 311 311 311 311 311 312 312 312 312 312 312 312 312 313 314 314 315 315 316 314 314 314 314 314 314 314 314 314 314 316 316 317 317 316 317 318 319 320 321 319 321 327 325 328 334 326 321 319 317 317 317 317 317 317 317 317 316 316 317 316 316 317 317 317 317 317 316 316 316 317 317
310 309 309 310 309 310 310 310 310 310 310 310 310 310 310 310 311 311 311 311 311 311 311 311 312 312 311 312 312 313 314 314 315 316 315 314 314 314 314 314 314 314 313 314 314 315 316 316 316 317 317 317 318 320 321 320 320 321 322 325 332 329 321 319 318 318 318 317 317 317 317 317 317 317 316 316 316 316 317 317 317 317 316 316 316 316 316 316
309 309 309 309 309 310 310 310 310 310 310 310 310 310 310 310 311 311 311 311 311 311 311 311 311 311 311 311 312 312 313 315 316 316 315 314 314 315 315 315 315 314 314 313 314 315 316 316 316 317 317 317 317 319 320 320 321 321 321 327 329 321 318 321 319 319 318 317 318 317 318 317 317 317 316 316 317 317 316 316 317 316 316 316 316 316 316 317
309 309 309 309 309 309 309 310 310 310 310 310 310 310 310 310 310 310 311 310 310 310 311 311 311 311 312 312 312 313 313 316 317 315 315 314 315 315 315 315 315 315 314 314 314 314 315 316 316 316 316 316 316 318 319 320 320 320 320 322 321 318 319 320 319 319 317 317 318 317 317 317 317 317 316 316 316 317 315 316 316 315 316 316 316 317 317 317
309 309 309 309 309 309 309 309 310 310 310 310 310 310 310 310 310 310 310 310 310 311 311 311 311 312 312 312 313 313 314 315 316 316 316 315 315 315 316 315 315 314 314 314 314 314 314 315 315 315 315 316 316 317 318 318 319 321 321 318 318 319 318 318 318 318 317 316 316 317 317 317 317 317 317 316 316 316 316 316 316 316 316 316 316 316 317 316
308 308 309 309 309 309 309 309 310 310 310 310 310 310 310 310 310 311 311 311 311 312 312 312 313 313 313 314 314 315 315 315 315 316 316 316 316 316 316 315 314 314 314 314 314 314 314 315 315 315 315 315 316 316 317 317 317 320 321 319 319 319 318 318 318 317 317 316 316 317 317 316 316 317 317 316 316 316 316 316 315 316 316 316 316 316 316 316
308 308 309 309 309 309 309 310 310 310 310 310 311 311 311 312 312 312 312 312 313 313 313 314 314 315 315 316 317 317 316 316 316 317 316 316 316 316 316 315 314 314 314 314 314 314 315 315 315 315 315 315 315 315 315 315 316 317 318 317 317 318 317 317 317 316 316 316 316 315 315 315 316 317 316 316 316 316 316 316 316 316 316 316 316 316 317 316
309 309 309 310 310 310 310 311 311 311 311 312 312 312 312 313 313 313 314 314 315 315 316 317 318 318 319 319 319 318 318 318 319 319 318 317 316 316 315 314 314 315 314 315 314 315 316 316 316 316 315 316 316 315 315 316 316 316 315 315 315 315 315 316 315 315 316 315 315 314 313 314 315 316 316 316 316 317 316 316 316 316 316 316 316 316 316 316
311 311 312 312 312 312 313 313 314 314 314 314 315 315 316 316 317 317 317 318 318 319 319 320 321 321 320 320 319 319 321 321 320 320 319 318 317 315 315 315 315 315 314 315 314 315 316 316 316 316 316 317 315 315 315 315 316 315 314 314 314 314 315 315 315 315 315 314 314 313 313 313 314 316 317 316 316 316 316 316 316 316 316 316 316 316 316 316
315 315 316 316 316 316 317 317 318 318 318 319 319 319 319 319 319 319 319 319 318 319 318 318 318 317 317 316 317 319 321 321 321 320 319 318 317 316 315 317 318 316 314 315 315 315 316 316 316 316 316 316 314 315 315 314 315 315 314 315 314 314 315 314 314 314 314 313 314 314 313 313 313 315 316 316 317 316 316 316 316 316 316 316 316 316 316 316
317 317 318 318 318 319 319 319 319 319 319 319 318 318 317 317 317 316 316 316 315 315 315 314 314 313 313 313 314 317 318 318 318 318 319 319 318 318 318 319 320 318 316 314 315 316 316 316 316 316 316 315 315 315 315 315 314 314 314 315 315 313 314 314 313 314 313 314 314 313 314 315 315 315 316 316 316 316 315 316 316 316 316 316 316 316 316 315
317 317 317 317 317 317 317 317 317 317 316 316 315 315 315 315 314 314 314 314 314 314 314 313 313 313 313 312 315 316 316 315 315 316 316 317 318 318 318 318 319 318 316 314 315 316 316 316 316 316 316 315 315 315 315 314 314 315 314 314 316 315 316 315 313 315 314 313 314 314 316 321 319 315 316 316 316 316 315 316 316 317 317 316 315 315 315 315
315 315 315 315 315 315 315 315 315 314 314 314 314 314 314 314 314 314 314 314 314 314 314 314 314 314 313 313 316 316 315 316 315 315 315 315 316 317 317 316 316 316 314 313 314 316 317 317 316 316 315 315 315 315 315 314 314 315 313 315 316 316 319 317 313 315 315 313 314 314 317 321 320 316 316 317 317 316 316 317 317 317 316 315 315 315 314 314
314 314 314 314 314 314 314 314 314 314 313 314 313 314 314 313 314 314 314 314 315 315 316 316 315 314 313 314 316 316 316 316 315 315 315 315 315 316 315 315 316 315 314 313 314 315 316 317 316 316 315 314 314 314 316 317 317 315 314 320 320 316 319 318 314 315 316 315 313 314 318 319 317 315 316 317 316 316 316 317 317 316 315 314 314 314 314 314
313 313 313 313 313 313 313 313 313 313 313 313 313 313 313 313 314 315 316 316 317 317 317 316 316 314 313 314 316 317 316 316 316 316 316 315 315 315 315 316 315 315 314 313 314 315 315 315 315 314 314 314 315 315 317 319 321 318 315 320 321 318 317 318 317 314 314 315 313 313 317 318 317 315 316 317 316 316 316 315 315 315 314 313 314 314 314 314
313 313 313 313 313 313 313 313 313 313 313 312 313 313 314 315 317 318 319 319 319 319 317 317 316 315 314 315 316 316 316 316 316 316 315 315 315 315 314 314 314 314 313 313 313 313 314 314 313 314 314 314 315 315 319 320 321 322 319 318 320 319 317 318 321 316 313 315 315 314 314 315 316 315 315 316 316 315 314 314 315 314 314 314 314 313 312 312
313 313 313 313 313 313 313 312 312 312 313 313 313 315 317 319 320 321 320 320 319 318 316 316 315 316 317 316 316 317 317 316 315 315 315 314 314 314 314 314 314 314 313 312 313 312 313 312 313 315 315 314 314 314 317 320 319 322 322 320 320 320 318 318 320 318 316 317 317 317 316 315 315 314 313 315 316 314 313 314 314 314 314 314 312 311 310 310
313 313 313 313 313 312 312 312 313 313 314 316 317 319 320 320 321 321 321 320 319 318 319 316 315 318 319 318 317 318 317 315 315 315 315 315 316 315 314 314 314 313 312 314 315 312 312 313 313 316 316 315 315 313 315 317 317 319 319 319 319 319 319 318 318 318 317 317 318 318 317 316 316 316 314 314 316 314 313 314 313 314 314 312 310 309 308 307
313 312 312 312 312 312 312 313 313 315 316 319 322 322 321 321 323 322 319 319 319 319 321 318 316 318 318 319 319 319 318 316 316 317 317 317 316 316 314 313 313 313 313 317 318 312 312 316 316 317 317 316 315 313 313 313 314 315 316 317 318 318 318 317 317 318 316 316 319 318 317 316 316 317 314 314 315 313 312 312 313 313 312 310 308 307 307 306
312 312 312 312 312 312 313 314 315 318 320 322 323 322 321 321 323 322 319 320 320 320 320 319 319 319 320 320 320 320 320 319 318 318 318 317 316 315 314 313 313 314 313 315 316 312 312 317 318 317 316 315 315 314 313 314 315 315 316 318 318 319 318 317 317 316 314 315 320 319 317 316 316 315 314 313 313 312 312 312 312 311 310 308 307 306 306 306
312 313 313 313 313 314 315 316 318 320 321 323 323 322 322 322 322 321 320 320 320 321 321 321 321 321 321 320 320 321 321 319 318 317 317 316 315 315 315 314 314 316 315 313 314 314 314 317 317 314 313 314 315 314 315 316 316 317 318 319 319 320 319 319 318 317 315 315 319 320 316 316 316 316 314 312 312 312 311 311 310 309 308 307 306 305 306 306
315 315 316 316 316 316 317 318 319 321 322 323 323 323 323 323 322 321 319 318 320 321 321 321 321 321 321 321 321 321 319 319 318 317 317 315 314 315 314 313 314 316 316 315 316 317 317 318 315 312 312 314 315 315 316 317 317 319 319 319 320 319 318 321 320 318 316 315 317 318 317 317 316 316 314 311 311 311 310 309 308 307 306 305 305 305 305 305
317 317 318 319 319 319 319 319 320 321 322 323 323 323 323 323 322 320 318 317 319 320 320 321 320 320 321 320 320 319 318 319 318 318 317 316 315 315 314 313 314 315 315 315 316 317 318 318 314 313 314 316 316 316 317 317 319 323 322 320 321 319 317 319 318 317 317 319 319 316 320 325 321 318 316 311 310 310 309 308 307 306 305 305 305 304 304 305
318 319 319 319 320 320 320 321 321 322 323 323 324 323 323 323 321 319 317 319 322 321 320 320 319 319 319 318 319 318 317 317 317 317 317 316 315 315 315 314 315 316 317 317 316 316 316 315 315 317 318 317 317 318 319 318 320 324 325 321 320 319 318 320 320 319 320 322 320 314 321 329 325 322 320 312 310 310 308 307 306 305 305 304 304 303 303 304
318 319 320 320 321 321 321 321 322 323 324 323 324 323 323 323 320 318 318 322 325 323 320 319 319 318 316 315 316 316 317 316 315 316 316 314 314 314 315 315 315 317 318 317 318 319 317 315 318 321 321 319 318 321 322 319 318 321 323 321 321 319 318 320 319 319 321 322 319 313 318 323 320 320 319 313 311 309 307 306 305 305 304 303 303 303 303 303
318 319 320 320 322 322 322 322 323 324 324 324 324 324 323 323 320 318 321 326 328 323 319 317 317 316 313 313 313 316 321 317 313 315 314 314 314 313 315 316 316 316 315 315 320 322 317 317 319 320 321 319 318 321 323 322 320 322 322 318 319 317 316 318 315 316 321 319 319 317 315 316 317 317 316 315 313 310 307 306 305 304 304 303 302 302 302 302
318 319 319 320 322 324 323 323 323 323 324 325 325 324 324 323 321 318 323 330 328 319 316 314 314 313 311 312 312 313 316 315 314 314 313 314 314 312 314 316 315 316 314 316 324 323 316 317 321 322 321 319 322 323 323 322 322 324 320 315 316 314 314 317 314 317 319 315 320 323 315 315 321 322 316 315 315 311 308 307 305 304 303 302 302 301 301 300
320 319 319 319 322 325 324 324 323 323 324 324 324 325 324 323 321 319 324 329 325 317 314 312 312 312 311 311 312 311 310 311 313 312 311 313 313 312 313 313 312 313 313 315 322 322 316 315 318 322 322 321 324 324 322 322 319 317 316 316 319 317 315 316 314 317 317 314 321 324 317 316 324 328 318 314 317 313 309 307 304 303 302 301 301 300 300 299
322 322 321 320 322 324 324 324 323 323 323 323 325 325 323 322 321 323 327 327 324 319 313 311 313 312 311 311 311 310 310 311 311 311 311 311 312 311 311 311 309 314 319 319 321 319 314 311 312 316 319 319 321 318 316 318 315 313 315 319 324 321 319 318 318 318 315 319 325 322 319 317 322 331 322 314 318 314 308 306 304 302 301 301 300 300 300 299
323 324 323 322 322 323 323 324 323 324 323 323 324 323 322 322 322 327 328 322 322 321 313 313 314 311 311 315 314 311 310 311 310 312 312 312 312 311 311 313 312 317 324 323 321 317 313 313 314 314 313 313 316 315 313 314 313 313 318 322 324 325 323 320 320 318 316 325 329 321 319 317 318 329 323 314 314 311 308 307 303 302 301 300 299 299 299 299
323 323 323 323 323 323 323 323 323 323 323 323 323 321 322 324 324 327 326 321 324 323 316 316 316 313 314 318 319 315 312 312 311 312 315 315 315 314 315 321 320 320 324 324 323 320 318 318 315 313 312 311 315 317 315 316 316 317 318 320 324 325 325 323 322 321 320 326 325 319 321 319 319 325 318 311 310 308 307 305 302 302 300 299 299 298 299 300
322 322 322 323 323 323 323 323 322 321 322 323 322 320 321 323 324 325 325 325 326 322 318 318 318 318 319 319 320 318 315 315 312 311 315 316 316 316 318 323 322 320 322 323 324 323 324 322 315 314 314 313 315 316 318 320 317 316 317 320 325 324 323 324 323 322 321 323 323 319 319 320 322 320 311 306 305 304 304 303 302 301 299 299 298 298 299 300
322 322 322 322 322 322 323 322 320 320 321 321 319 319 320 321 322 323 324 325 323 320 319 319 317 318 319 319 322 320 318 319 314 311 315 315 316 318 319 318 317 319 320 320 321 322 324 324 320 319 317 315 314 314 322 327 317 314 318 321 324 325 324 323 322 323 323 325 325 321 319 324 326 317 306 303 302 301 302 301 301 300 299 299 298 298 299 300
321 321 321 321 321 321 321 319 318 319 321 320 318 319 319 320 322 324 325 324 322 320 320 320 318 318 320 321 323 321 319 321 317 314 317 318 319 323 324 320 317 318 320 320 322 321 320 324 324 318 314 315 315 313 318 325 319 314 315 318 321 324 324 321 321 323 322 323 325 322 322 323 317 308 303 302 302 301 301 300 300 300 299 299 298 298 300 300
319 319 319 319 319 319 319 318 318 319 320 320 319 318 318 319 322 324 325 323 322 321 320 321 322 321 322 324 324 321 319 320 319 317 318 319 321 324 325 323 319 316 318 320 323 321 319 324 322 314 312 313 313 314 313 316 319 315 314 320 322 320 321 321 320 320 318 319 320 320 323 318 311 308 305 303 302 301 301 300 299 299 299 298 299 299 300 300
319 318 318 318 317 316 316 317 319 318 319 319 319 318 317 319 320 321 321 319 320 321 321 323 324 322 323 325 324 323 321 321 320 319 321 321 320 321 321 319 317 315 316 317 321 322 320 323 321 316 317 314 310 313 312 310 315 318 318 321 319 316 319 322 321 320 320 319 318 319 320 318 316 313 305 303 304 302 301 300 299 299 299 298 299 299 300 300
318 318 318 318 317 316 315 317 318 319 319 318 317 318 319 320 318 317 318 317 319 322 323 324 323 322 323 324 325 324 321 322 321 319 323 322 319 320 320 318 315 313 313 313 318 321 320 321 321 318 319 317 311 314 316 311 310 315 316 316 316 317 320 320 319 320 320 318 318 320 319 317 318 316 307 305 306 302 301 301 299 298 298 298 299 299 299 299
317 316 316 317 317 316 315 316 318 318 319 318 317 317 319 320 318 316 317 317 318 321 323 324 322 322 323 323 325 324 320 322 322 320 321 321 319 318 318 318 317 313 312 313 318 321 319 320 322 318 316 317 315 316 321 318 312 311 312 312 315 318 319 318 317 320 320 316 316 319 317 316 319 317 311 307 305 302 302 301 300 299 298 299 299 299 299 299
314 313 314 316 316 316 315 316 317 317 318 319 318 318 319 318 318 317 318 317 318 320 322 323 323 322 322 322 323 322 320 321 321 320 321 320 319 318 317 318 318 315 312 313 317 320 318 318 321 318 315 316 318 318 321 322 317 313 314 314 314 315 317 317 316 318 319 317 316 316 316 317 316 311 309 307 304 301 301 301 300 299 298 299 300 300 300 300
310 310 311 314 314 314 314 315 316 316 318 319 318 318 318 317 318 318 317 317 318 318 318 321 323 322 321 321 321 321 320 320 319 319 319 319 319 319 316 313 314 315 315 317 318 317 316 319 321 319 316 318 322 319 317 320 321 319 318 317 316 315 316 316 315 317 317 316 316 316 316 317 313 307 306 305 303 301 301 301 301 299 299 300 301 301 300 299
307 308 310 312 312 312 313 315 316 316 317 318 317 317 317 317 317 318 317 316 317 317 316 317 320 320 319 320 319 319 319 318 318 319 319 319 320 320 314 310 311 313 317 320 318 313 312 317 319 319 317 318 320 316 312 317 322 322 318 318 318 317 316 316 315 316 315 315 316 317 316 315 311 306 306 304 302 302 301 301 301 300 300 301 301 300 299 298
305 308 310 310 310 311 312 314 315 315 316 315 315 316 316 316 316 317 317 316 316 316 314 315 317 317 318 318 316 316 317 316 317 318 318 318 318 316 312 310 311 313 314 318 317 313 313 315 316 317 318 317 317 315 313 315 318 317 315 316 317 316 315 315 314 314 314 314 316 316 316 316 311 304 303 303 302 302 302 302 302 301 301 301 300 299 299 298
304 306 309 310 309 310 312 312 313 314 314 313 314 314 314 315 315 316 317 316 316 317 316 316 316 316 316 316 315 316 316 316 316 316 318 319 315 311 309 310 312 312 312 315 315 313 315 315 314 316 317 316 315 315 315 316 316 315 315 315 314 314 313 312 312 313 313 313 314 314 314 315 311 304 302 303 304 303 302 302 302 302 301 300 299 298 298 297
304 306 308 309 309 310 311 311 310 312 312 312 313 313 313 314 314 315 316 315 315 315 315 316 315 314 316 315 315 316 315 316 316 315 316 318 313 309 308 309 310 310 309 310 311 313 315 314 313 314 315 314 313 314 313 314 314 314 315 314 313 313 313 311 311 312 312 312 312 312 313 313 311 307 305 306 305 305 304 302 302 302 301 300 299 298 297 295
304 306 308 308 309 310 311 310 310 311 311 311 311 312 312 313 313 313 315 314 314 314 314 314 314 314 315 315 315 316 315 315 314 314 316 316 313 309 307 307 308 307 307 308 308 312 314 312 312 314 314 313 312 312 311 311 311 311 312 312 311 311 310 310 310 310 310 310 309 309 310 311 310 308 308 308 307 306 304 302 301 301 300 300 299 298 296 294
303 305 308 309 309 309 310 310 310 310 310 311 311 311 311 312 311 311 313 313 314 314 312 312 313 314 315 315 315 315 315 314 314 314 315 315 312 308 306 306 307 306 307 307 307 310 311 311 311 312 312 311 310 309 309 308 308 309 309 309 309 308 307 307 308 308 309 309 308 308 308 308 308 308 308 309 309 308 304 302 301 301 300 300 299 297 295 294
302 303 305 307 308 309 309 310 310 310 310 310 311 311 312 312 311 311 313 313 312 313 313 312 313 314 315 315 314 314 314 313 313 314 315 313 311 308 307 306 305 305 306 306 306 309 311 311 310 310 309 309 308 307 306 305 306 307 307 308 308 307 306 306 305 306 307 307 307 306 306 306 306 306 307 306 305 305 304 302 302 302 301 299 298 296 295 294
302 301 301 303 306 307 308 309 309 309 310 309 310 311 311 311 311 311 313 313 312 312 312 312 312 313 314 314 312 313 313 312 312 312 312 312 310 309 309 307 305 304 304 306 305 306 309 310 307 306 306 306 305 304 304 304 305 305 306 306 305 305 304 304 304 305 306 306 306 306 306 306 305 305 305 304 301 301 300 301 302 301 300 298 297 295 295 294
300 300 299 301 303 304 305 308 309 309 309 309 309 309 309 310 311 311 311 312 313 312 311 312 313 312 312 312 311 312 312 311 311 310 309 309 309 308 309 309 306 303 303 306 305 303 306 307 305 304 306 306 305 304 304 305 305 305 305 304 304 303 303 303 303 303 303 303 304 304 304 304 303 302 301 301 300 298 297 297 298 299 298 297 296 295 294 294
298 298 298 299 302 304 304 305 307 308 309 309 308 308 308 309 310 310 310 309 310 312 311 311 311 310 309 309 311 310 307 306 308 306 305 306 307 307 307 306 305 304 304 304 304 304 306 305 304 305 306 305 303 303 304 305 304 304 303 302 302 301 302 302 302 302 302 302 302 302 302 302 302 300 298 297 296 295 294 294 294 295 296 295 294 293 293 292
297 297 297 297 300 303 303 305 307 308 308 308 307 307 307 307 307 307 308 307 305 307 309 308 307 308 308 308 309 308 304 303 304 303 302 303 303 302 303 303 303 304 304 303 303 305 306 306 305 305 304 302 301 301 302 302 301 301 300 299 300 300 300 300 300 301 301 300 301 301 301 302 302 301 300 297 294 293 293 293 293 293 293 293 293 292 292 292
Wind_Speed
4 4 4 4 4 4 4 3 4 3 3 3 3 3 3 2 2 2 3 3 3 3 4 4 5 6 7 9 10 11 12 13 14 17 17 12 8 5 1 3 4 4 5 4 2 3 3 1 2 2 2 3 1 2 2 2 3 2 2 3 2 3 3 4 2 3 1 3 6 4 3 3 2 6 6 6 8 12 16 22 22 18 19 20 21 22 23 24
4 4 4 4 4 4 4 4 4 4 4 4 4 4 4 4 4 4 4 5 5 6 6 6 7 8 9 10 10 12 13 14 17 17 13 5 3 5 4 4 5 4 5 4 3 2 2 3 3 1 2 3 2 3 3 3 4 3 2 2 4 5 5 6 7 8 5 4 8 7 6 5 5 10 10 5 9 12 13 21 25 23 23 20 19 19 19 18
5 5 5 5 5 5 5 5 5 5 5 5 5 5 5 5 5 6 6 6 7 7 8 8 9 9 10 10 11 12 13 17 18 10 3 5 8 6 4 8 8 6 5 4 3 2 4 2 3 3 4 4 4 5 5 4 5 6 4 1 6 6 6 13 14 14 15 12 9 7 7 9 11 14 11 6 11 11 10 16 21 25 28 23 18 17 18 17
7 6 6 6 6 6 6 6 6 6 6 6 7 6 7 7 7 7 7 8 8 9 9 10 10 10 11 11 12 12 14 16 11 2 4 5 5 3 5 10 12 8 5 5 4 2 5 4 3 4 5 4 5 6 6 7 6 5 7 4 7 5 5 13 16 18 21 16 11 11 10 12 14 14 12 9 8 7 12 18 21 28 33 28 23 22 23 23
9 8 8 8 8 8 8 8 7 7 7 8 8 8 8 8 9 9 9 9 10 10 10 11 11 11 12 12 12 12 12 9 2 3 1 2 1 5 9 13 14 10 7 5 4 3 6 6 5 4 4 4 4 3 5 12 11 4 7 11 11 8 5 13 17 17 20 17 14 13 9 12 15 14 16 12 7 11 19 25 26 31 34 32 29 26 26 26
10 9 9 9 9 9 9 9 9 8 9 9 9 10 9 10 10 10 10 11 11 11 12 12 12 13 13 13 13 12 7 2 2 1 4 7 9 12 13 16 13 10 7 5 4 4 5 5 6 5 3 3 4 4 7 13 13 6 6 11 16 15 10 14 19 20 22 18 14 11 11 15 12 15 20 16 18 25 30 31 31 33 33 32 31 29 29 27
10 10 10 10 10 10 10 10 10 10 10 10 10 11 11 11 11 11 12 12 12 12 13 14 14 14 14 14 14 12 8 11 11 9 11 13 13 14 15 16 11 7 5 4 5 4 4 4 7 7 3 3 5 7 11 13 10 8 5 7 14 17 14 16 20 21 21 16 15 15 16 16 10 12 18 20 30 35 32 30 30 30 30 29 29 28 26 25
11 11 11 11 11 11 11 11 11 11 11 11 12 12 12 13 12 13 13 14 15 14 15 16 16 16 15 15 14 11 12 17 16 12 14 12 12 14 14 11 6 5 4 4 6 4 3 3 7 8 3 4 6 6 9 10 5 6 5 5 7 10 12 16 19 21 21 22 23 19 18 20 17 15 16 26 36 33 27 26 26 25 24 24 24 22 21 20
12 11 11 12 12 12 12 12 12 12 13 13 13 14 14 14 14 15 15 16 16 16 17 16 17 18 16 15 12 10 14 16 13 10 11 11 13 13 11 7 5 6 5 5 6 5 5 5 7 7 4 4 5 7 7 4 3 3 4 6 7 10 14 18 20 24 26 27 25 15 16 23 21 14 14 27 32 27 26 27 26 24 23 22 22 21 20 19
12 12 12 12 12 12 13 13 13 14 14 14 15 15 15 16 16 16 16 17 17 17 17 16 17 17 16 16 9 6 12 12 10 9 8 10 12 11 10 8 9 9 7 7 8 8 8 7 8 6 5 6 4 6 7 2 4 6 10 12 12 13 18 20 20 29 29 26 26 14 13 24 19 6 9 25 26 24 30 30 28 25 23 23 23 24 23 21
13 13 13 13 13 14 14 14 14 15 15 15 15 16 16 16 16 16 16 16 16 16 16 16 16 15 16 15 10 9 13 12 11 10 9 11 12 12 12 12 12 11 10 9 9 10 10 11 11 7 4 4 3 7 9 5 6 9 11 11 14 15 21 23 19 30 25 15 23 15 11 20 11 3 14 27 24 24 30 30 27 24 22 21 22 24 22 21
14 14 15 15 15 15 15 15 15 15 15 15 15 15 15 15 15 15 15 14 15 14 14 14 14 14 13 14 17 16 15 14 14 15 14 15 15 15 16 17 15 12 12 11 12 12 11 13 13 9 6 3 3 6 6 6 8 11 8 6 11 9 13 22 18 25 19 8 17 9 5 12 4 9 22 25 23 23 24 24 24 23 23 21 18 20 21 23
14 15 15 15 15 15 15 15 15 15 14 14 14 14 13 14 13 13 13 13 13 12 12 12 13 13 11 13 17 15 13 13 14 15 16 18 19 19 18 16 13 12 12 12 14 14 13 14 14 11 10 7 4 4 6 9 10 11 5 0 7 6 6 18 15 16 12 6 12 9 2 8 6 16 22 19 22 20 18 22 27 30 30 25 19 22 23 19
14 14 14 14 14 14 14 14 14 13 13 13 12 12 12 12 11 12 12 12 12 11 11 12 13 12 11 13 15 13 12 13 13 13 15 18 20 19 16 13 10 10 10 12 14 15 13 13 13 12 11 9 8 8 7 8 7 6 3 1 3 2 5 14 11 9 6 3 11 13 3 7 7 14 18 16 18 19 21 27 33 34 30 25 23 24 17 9
13 13 13 13 13 13 13 12 12 12 12 12 11 11 11 10 11 10 11 11 11 11 11 12 12 10 11 14 15 12 11 12 13 13 13 15 16 15 12 9 8 9 9 11 14 15 13 11 10 8 8 10 8 6 4 4 4 2 1 3 2 3 5 11 13 8 4 3 6 8 3 6 7 14 18 15 17 20 23 30 34 31 26 23 20 14 5 9
11 12 11 11 11 11 11 11 11 11 10 10 10 10 10 10 10 10 10 10 10 11 10 10 9 7 7 11 11 8 8 9 9 9 10 12 13 11 7 5 5 7 9 11 13 13 13 10 7 6 6 7 3 2 3 4 4 2 3 4 4 4 3 6 10 5 5 4 1 3 3 4 5 11 16 17 20 21 24 30 32 29 27 19 10 9 12 11
10 10 10 10 10 10 9 10 9 9 9 9 9 9 9 8 8 9 10 10 10 11 9 8 6 5 8 10 9 8 8 8 7 8 9 8 9 7 4 3 4 6 8 10 12 11 9 7 4 3 4 3 2 4 3 3 4 4 2 3 4 5 4 3 7 5 4 4 3 4 4 6 7 10 18 23 25 25 26 27 26 27 22 9 14 16 17 15
9 9 9 9 9 8 8 8 8 8 8 8 9 8 8 8 8 10 11 11 11 8 7 8 6 2 6 8 7 8 8 7 7 7 6 6 5 4 3 3 4 5 6 6 8 7 6 5 5 1 2 1 2 4 2 5 5 4 4 4 4 5 4 5 6 4 2 2 4 6 7 9 9 11 20 26 27 24 22 21 24 21 5 15 19 21 22 20
8 8 8 8 7 7 7 6 6 6 6 7 8 8 7 8 9 10 9 10 9 5 3 7 9 3 3 6 8 8 7 8 8 7 7 7 6 7 5 4 4 6 6 3 3 8 8 3 3 1 2 4 5 7 9 9 8 7 7 5 5 5 5 6 6 5 5 6 6 9 9 8 8 9 15 25 27 20 16 20 20 6 16 22 22 25 24 23
8 7 7 7 7 6 5 5 5 5 5 5 6 7 6 6 4 4 5 9 11 9 7 8 11 12 12 11 8 5 7 8 9 10 9 8 7 8 8 7 5 5 4 4 3 8 11 4 2 5 6 9 10 11 11 9 8 8 7 6 6 5 5 5 6 7 6 4 6 8 6 6 8 8 14 26 26 19 17 15 6 16 23 23 24 25 24 25
7 6 6 6 6 6 5 5 4 4 4 3 4 4 3 3 2 3 5 9 13 14 16 16 16 19 20 17 12 11 13 10 10 11 8 8 8 7 9 9 5 3 5 5 3 4 8 5 6 10 10 11 11 10 8 7 7 7 6 5 5 4 5 6 5 7 5 3 5 5 6 7 9 10 18 24 16 12 9 4 15 23 23 23 24 24 24 24
7 6 6 6 6 5 5 5 4 4 4 4 4 3 3 3 4 6 6 9 14 17 18 19 20 22 23 22 20 20 19 11 9 11 9 10 11 8 9 9 5 4 4 3 4 2 4 4 9 13 11 10 8 7 7 8 7 6 5 4 5 4 4 5 5 6 5 2 5 6 6 7 9 12 17 14 7 12 15 19 21 23 24 22 22 23 23 23
7 6 6 6 6 6 5 5 5 5 4 4 4 4 4 4 5 7 6 7 13 16 16 19 22 25 25 23 19 19 18 12 9 11 12 12 13 11 10 9 5 4 4 4 5 5 4 6 13 16 11 8 8 8 7 7 5 4 4 4 5 4 2 4 5 6 5 2 3 4 5 5 7 10 8 10 15 19 23 26 25 25 26 24 22 23 24 25
8 8 7 7 7 7 6 6 6 6 6 5 5 4 4 4 4 6 7 6 7 11 16 19 19 19 19 18 16 15 13 10 7 9 13 14 14 11 9 10 7 4 5 7 9 8 6 8 12 10 7 8 9 9 7 5 4 3 4 4 4 3 3 4 3 5 5 4 2 3 6 4 6 8 2 9 14 17 18 22 25 24 24 25 25 25 26 27
10 9 9 8 8 8 7 7 7 6 6 7 5 4 3 3 3 5 5 4 4 6 11 13 11 9 10 11 12 11 7 6 6 7 13 17 15 8 5 10 8 4 6 7 7 7 7 10 10 6 5 7 7 7 6 4 2 4 4 5 5 4 3 2 3 5 5 5 3 5 5 5 5 6 3 4 8 10 13 16 19 19 20 24 25 25 26 27
12 12 11 10 9 9 9 7 6 6 6 7 6 4 3 3 2 4 3 2 3 4 4 5 5 4 6 6 8 8 3 3 6 10 15 17 14 7 2 5 5 3 6 5 2 3 4 6 5 4 5 4 3 5 5 5 2 3 4 5 6 5 2 1 3 4 2 3 4 3 0 6 4 7 7 4 8 6 8 11 12 16 19 21 23 23 25 27
14 14 13 11 10 10 10 8 7 7 6 6 6 5 4 3 1 3 3 1 3 2 4 3 2 2 3 5 9 9 2 3 8 11 16 14 11 7 3 2 2 3 3 2 1 3 2 2 3 4 3 3 2 5 5 6 5 4 5 5 5 3 0 1 2 1 3 3 5 2 3 4 3 6 7 6 9 4 6 6 8 13 16 19 21 21 23 25
16 16 15 14 12 13 13 10 9 9 8 7 7 7 5 3 2 2 2 2 2 3 3 2 2 3 5 7 9 7 4 6 6 7 12 11 8 6 3 3 2 3 3 5 3 5 0 3 4 5 4 2 5 6 5 7 4 5 5 4 3 2 2 2 3 2 3 1 5 5 3 2 4 5 2 6 7 3 5 4 5 9 14 18 20 20 21 23
17 18 17 16 15 15 15 14 13 13 12 11 10 9 7 4 3 3 1 3 0 3 2 2 3 4 6 7 5 4 5 4 2 4 7 8 9 4 1 3 0 3 3 4 4 5 1 2 4 6 5 5 6 4 3 6 3 4 4 2 3 1 1 1 3 2 2 1 5 6 3 2 5 5 1 4 3 4 4 3 4 9 13 16 18 20 20 21
19 19 19 18 18 18 17 18 17 15 15 15 13 11 7 5 4 2 3 4 1 2 3 3 2 5 7 5 2 4 4 2 3 7 5 4 7 3 1 1 1 2 2 3 2 4 1 2 1 2 4 5 4 1 3 4 4 4 4 4 5 4 3 3 2 3 3 2 6 7 6 6 3 5 2 2 3 8 8 5 5 9 13 16 17 19 20 21
23 23 21 20 21 20 20 21 19 15 15 15 12 8 7 4 2 3 5 1 2 1 3 2 2 5 6 4 2 4 3 3 5 7 3 2 4 1 1 1 1 3 4 4 3 4 2 1 2 3 4 3 4 2 3 3 2 4 5 4 3 4 4 4 4 3 2 4 7 5 4 7 5 5 4 3 1 7 9 8 9 9 12 15 16 18 20 21
25 25 24 22 22 22 21 21 15 10 10 9 8 9 7 2 2 4 2 1 1 2 3 2 2 4 4 3 3 3 3 3 5 5 3 3 3 2 2 3 3 1 3 2 2 3 2 4 4 2 3 4 5 2 3 5 4 5 5 5 4 2 3 2 2 0 2 6 5 1 3 3 6 5 2 3 6 4 7 9 12 13 14 15 17 19 20 20
23 24 23 22 21 20 19 16 10 7 7 9 10 7 5 1 4 3 2 1 1 0 2 2 2 3 3 3 2 2 1 2 4 3 2 3 3 3 4 4 6 2 2 4 1 2 2 5 3 0 3 6 8 4 2 2 1 4 4 4 3 2 0 3 3 2 3 5 5 1 3 1 4 3 3 5 6 9 15 18 18 17 17 16 16 18 19 20
16 17 18 19 17 14 14 14 11 8 9 12 10 5 2 3 3 2 4 3 0 1 2 2 1 2 2 2 3 4 2 1 4 3 1 3 2 3 4 5 6 3 2 3 0 2 2 5 3 4 2 6 9 6 6 5 3 4 4 5 4 3 3 3 3 3 3 4 4 3 2 2 4 1 3 6 10 17 22 22 20 19 17 16 16 17 18 19
9 10 12 13 14 14 14 14 12 9 11 14 9 2 4 4 1 2 3 2 1 1 1 2 2 2 1 2 3 3 2 2 4 4 2 4 3 4 4 4 7 5 3 3 1 2 3 5 6 3 2 8 7 5 6 7 2 2 2 4 2 4 4 2 3 4 3 3 4 3 3 2 3 2 3 8 12 16 18 19 19 17 15 15 15 16 17 17
10 11 11 12 14 15 14 14 12 10 12 12 6 3 5 3 2 3 2 1 3 4 3 1 2 2 3 2 2 3 0 0 3 3 1 4 3 5 5 4 7 9 6 4 2 2 2 4 4 2 1 6 5 2 3 3 1 1 2 2 4 4 5 2 3 1 3 2 4 2 2 2 2 2 2 6 8 9 10 12 14 14 14 15 15 15 16 14
11 12 13 14 15 14 14 14 13 13 13 9 4 5 4 2 4 3 0 2 3 4 5 2 1 3 3 2 3 4 1 1 2 2 1 3 3 5 6 3 4 9 11 7 2 3 3 3 4 1 2 5 2 3 3 3 2 4 2 4 3 1 3 3 1 3 2 3 4 1 3 4 2 2 0 3 5 5 5 6 10 12 13 14 14 15 14 12
14 14 15 17 17 15 16 15 14 15 12 7 7 7 3 3 6 6 2 2 2 3 3 3 3 3 4 3 3 4 3 2 3 3 2 2 3 3 5 3 1 3 10 9 1 2 4 1 6 2 3 3 2 4 2 5 4 4 3 2 2 1 1 1 2 1 2 3 4 4 5 4 4 4 4 5 7 7 6 6 7 8 12 14 14 14 12 11
16 13 14 18 20 19 18 16 16 16 10 5 7 7 3 4 7 9 9 5 3 3 2 4 3 1 3 4 3 3 3 3 4 3 1 2 3 1 3 2 1 3 3 7 4 2 3 2 4 3 0 1 3 3 2 3 3 4 2 1 2 3 3 2 2 3 3 3 4 5 6 4 4 5 8 10 11 11 10 7 6 9 14 16 15 13 11 9
14 9 9 15 18 19 20 18 17 14 7 5 7 4 2 3 7 12 14 9 3 3 3 4 4 4 4 4 3 3 2 3 4 3 2 3 3 1 2 1 1 2 3 5 4 0 2 2 3 4 3 1 1 2 5 5 2 1 1 1 2 1 1 1 2 3 3 3 4 5 7 5 3 2 6 11 10 9 9 8 7 13 17 16 13 12 10 8
12 5 6 13 14 16 21 17 12 8 4 6 6 2 1 2 4 10 14 11 6 4 4 3 5 5 4 4 4 4 3 3 4 3 3 3 3 2 0 2 2 1 2 5 3 1 1 2 3 2 1 2 4 4 5 6 5 5 3 3 4 3 1 2 4 2 3 3 3 5 8 5 2 2 2 6 7 8 12 13 12 16 18 16 13 11 9 8
12 4 6 12 13 17 21 13 7 6 5 6 6 5 5 4 3 6 9 9 5 3 2 2 3 3 3 3 3 2 3 3 3 3 2 4 3 2 2 1 2 1 2 3 1 0 2 3 2 3 3 5 6 2 2 4 6 5 2 2 3 3 3 3 5 2 1 2 1 2 6 3 0 3 3 5 10 13 18 18 15 17 19 17 14 12 10 9
14 7 5 11 15 21 19 6 4 6 4 5 6 7 8 5 3 6 7 7 4 2 2 2 3 4 3 3 2 2 2 2 4 5 3 4 3 1 1 1 0 2 3 2 1 2 3 3 1 3 3 3 4 4 5 4 5 2 2 0 3 3 3 3 4 1 1 3 3 3 5 2 1 3 4 4 9 13 17 18 16 16 18 17 15 14 13 12
13 10 8 11 16 23 16 4 5 7 6 4 4 6 8 7 6 7 6 6 6 4 3 3 4 6 5 4 4 5 4 3 5 6 5 4 3 1 2 0 2 2 2 1 2 2 1 2 2 1 3 4 4 4 4 4 3 2 2 1 1 2 2 2 1 1 2 5 7 6 4 2 1 2 3 2 5 8 12 16 15 15 17 18 17 15 14 14
8 8 10 13 20 24 16 5 3 5 7 7 6 6 7 6 8 11 8 7 9 7 3 3 6 7 5 4 5 6 6 5 4 2 1 1 0 2 4 3 3 4 3 3 5 5 3 2 3 3 5 7 5 3 2 1 1 0 1 2 2 2 3 2 0 2 3 3 3 4 4 2 3 2 1 3 4 6 9 12 14 15 18 19 17 15 15 15
6 4 6 11 19 26 22 13 4 2 3 6 6 7 8 6 6 10 11 9 10 10 5 3 5 5 4 4 5 5 6 4 2 2 2 1 1 2 4 5 6 7 7 7 6 5 3 1 3 5 6 8 5 4 3 3 1 3 4 5 5 5 5 3 2 4 3 1 3 7 6 5 7 6 5 6 7 7 9 11 15 16 18 19 17 15 15 14
5 2 5 8 12 18 20 16 10 4 2 5 4 4 9 10 5 7 11 9 11 13 7 4 6 6 5 6 5 4 4 3 3 4 3 3 1 1 2 4 6 7 6 5 4 4 3 1 3 5 6 6 3 3 1 3 3 5 6 8 10 9 6 6 6 5 2 1 8 10 7 6 9 10 7 7 7 7 9 13 17 18 19 19 16 14 14 13
5 2 5 10 8 7 10 13 13 9 6 6 3 2 5 9 7 7 8 6 8 12 8 4 7 8 7 7 5 4 4 4 4 4 3 3 2 2 2 3 2 3 4 3 2 4 4 3 4 3 5 7 4 4 3 1 3 5 6 8 11 12 11 8 7 6 5 6 10 11 9 8 10 11 8 6 7 9 11 15 17 17 19 18 15 14 14 13
7 5 4 7 5 4 8 15 15 12 10 7 4 4 3 6 7 6 4 3 3 7 7 5 6 7 7 7 5 4 5 5 4 4 3 3 3 3 1 2 1 1 3 3 1 3 4 2 2 1 3 7 6 4 2 2 3 5 7 10 12 14 12 8 8 10 9 9 11 10 11 12 12 10 8 9 11 9 7 8 9 13 18 18 16 15 14 12
6 4 4 2 3 3 6 13 13 10 9 8 8 6 3 3 5 3 2 4 4 3 5 7 5 5 6 7 7 5 5 6 5 4 4 4 3 2 2 2 2 1 2 2 0 1 2 1 0 3 1 6 4 1 2 3 5 6 9 13 14 13 10 9 11 10 7 9 12 11 11 13 11 8 6 8 8 3 3 5 9 12 16 17 16 14 13 12
7 3 4 4 2 3 4 6 9 7 6 8 9 7 5 7 7 3 1 3 5 4 5 9 8 4 3 5 7 7 6 8 8 6 6 5 4 3 1 2 5 4 2 2 0 1 2 1 1 4 1 6 3 3 3 4 3 6 13 17 17 12 10 10 9 7 8 11 11 9 9 10 8 5 3 3 4 6 8 9 10 11 14 16 14 12 11 13
9 9 7 3 1 4 3 3 5 6 5 7 9 9 7 8 7 4 3 1 4 3 5 10 10 5 3 5 6 7 9 10 9 8 6 3 3 3 2 3 6 5 4 3 1 0 3 3 1 3 2 6 2 4 3 0 2 7 11 13 14 12 10 9 8 9 12 10 7 8 9 8 5 5 5 3 5 7 9 10 9 10 11 12 11 9 10 13
Wind_Direction
198 198 196 196 192 197 202 201 205 208 210 213 219 225 224 232 233 249 258 259 274 279 283 292 298 303 306 310 314 318 321 321 318 312 309 309 288 277 48 37 8 6 349 333 307 261 253 285 320 325 332 335 341 256 254 237 208 130 89 111 249 225 206 217 221 315 279 263 308 305 331 32 356 338 323 292 272 272 285 286 283 278 274 280 293 296 288 282
220 220 219 216 215 218 219 220 222 224 227 230 233 238 242 246 248 257 263 266 275 279 284 291 296 299 302 308 313 316 321 321 316 313 311 299 159 122 82 28 6 350 338 331 320 254 172 56 4 300 291 309 269 234 224 203 193 176 134 145 229 212 229 273 297 318 334 310 309 321 348 356 323 321 325 295 272 278 281 284 286 285 280 288 298 292 289 291
235 235 237 235 235 234 233 235 234 236 238 240 245 247 250 252 255 260 264 267 273 276 281 287 290 294 297 302 308 313 320 321 318 324 359 133 127 99 40 360 351 338 325 313 304 211 157 93 325 257 235 264 241 226 216 189 197 202 176 174 241 226 263 288 297 312 317 315 320 329 328 320 310 312 315 284 276 279 260 271 284 287 287 292 296 292 299 305
238 238 243 242 243 243 243 246 246 248 249 250 254 255 257 260 261 263 266 268 272 274 278 282 286 289 293 298 305 311 321 324 321 18 106 141 126 50 355 335 330 330 317 296 291 211 175 192 257 247 224 249 252 234 213 199 209 194 171 191 235 236 272 278 288 304 309 315 320 316 319 312 308 309 302 289 288 277 255 264 275 283 289 292 291 289 293 296
240 240 243 242 243 245 248 250 252 255 257 258 261 262 263 265 266 267 269 271 274 276 279 282 285 289 292 297 302 309 326 338 359 112 131 184 224 314 317 314 312 312 298 278 278 234 203 205 211 230 234 254 264 243 220 215 215 199 203 216 228 242 265 273 284 299 303 308 306 309 314 301 306 302 291 286 269 265 272 277 279 282 288 290 290 291 290 289
244 245 246 248 248 250 252 252 255 258 260 263 264 266 267 268 270 271 272 275 276 279 282 283 286 290 294 299 301 308 320 294 235 226 268 272 278 287 298 304 305 301 283 255 254 229 213 210 204 225 226 238 245 226 250 238 218 220 249 231 233 243 251 272 286 297 300 299 290 293 296 293 303 296 288 279 266 274 283 285 283 283 286 288 289 289 288 286
247 248 250 252 253 255 257 258 261 261 263 265 266 268 270 272 274 275 277 278 279 282 284 287 289 290 296 299 300 304 281 264 276 276 277 282 278 282 295 300 301 286 268 238 244 221 205 201 204 230 220 236 247 226 261 270 231 218 257 245 240 247 255 277 290 295 299 295 283 292 296 288 283 285 289 283 280 286 292 291 288 287 288 287 285 285 285 284
248 249 251 253 255 258 261 264 265 266 267 268 270 271 273 275 276 278 280 281 282 284 286 288 290 291 295 297 300 299 274 277 291 285 279 279 274 284 292 293 286 265 261 237 242 215 206 216 219 237 230 245 260 252 281 305 273 227 248 260 258 270 280 291 297 295 295 292 289 294 288 277 271 274 282 281 286 296 301 299 296 293 292 288 285 284 284 282
251 253 255 256 260 262 264 267 268 269 271 272 274 275 276 278 279 281 282 283 285 286 287 289 289 290 292 292 297 292 280 290 302 293 282 273 272 279 280 280 271 266 261 238 235 206 206 232 240 241 246 277 282 286 306 333 297 284 305 314 311 304 301 301 301 295 292 288 286 286 278 276 275 276 276 275 286 303 306 301 298 296 290 285 284 284 284 282
259 261 262 263 265 266 268 269 272 273 274 276 278 279 281 282 283 284 285 286 287 287 287 286 286 287 286 285 280 270 288 299 300 295 284 269 269 265 261 269 272 270 259 242 230 212 212 232 257 262 273 297 300 296 313 302 282 325 339 329 311 306 304 300 297 290 288 284 278 264 262 274 271 263 266 276 292 308 303 303 302 297 289 284 281 284 286 284
266 267 266 267 268 269 270 271 274 275 277 279 280 281 283 284 285 285 285 285 284 285 284 282 282 281 280 279 253 247 286 296 290 288 275 265 265 259 261 270 273 266 253 242 225 217 221 233 256 270 273 295 311 310 316 297 294 324 338 332 310 313 307 295 288 284 282 280 273 247 243 272 268 201 249 272 297 308 301 304 304 299 296 291 284 283 288 289
266 266 267 268 269 270 271 272 273 274 276 278 279 281 282 283 283 283 283 283 282 282 282 280 280 277 278 272 258 264 285 285 279 277 270 267 265 264 270 276 274 261 248 239 222 218 226 237 249 255 258 279 323 326 321 306 321 324 331 330 305 328 309 287 277 274 271 266 269 235 237 282 243 227 251 271 295 302 301 302 302 302 301 302 297 293 299 304
265 265 266 266 267 268 269 270 272 273 275 276 278 280 282 283 283 284 283 281 281 281 281 281 279 280 276 267 270 280 284 276 270 267 266 267 267 269 275 277 272 257 247 239 225 220 227 238 245 249 262 273 285 287 292 310 327 321 322 151 299 347 309 279 273 271 271 260 242 185 181 280 237 245 256 281 294 295 300 298 298 297 298 304 308 307 312 322
265 266 266 265 266 268 269 271 273 275 276 278 280 281 283 284 284 285 283 283 282 280 282 280 280 282 270 264 278 284 276 271 263 257 260 263 267 272 274 271 263 252 243 237 230 227 229 235 242 252 263 266 273 282 298 319 319 307 320 108 281 307 279 279 285 283 286 246 200 168 192 266 256 262 266 285 288 288 294 293 292 292 297 309 314 315 323 8
262 264 265 266 267 268 270 272 274 276 277 279 280 282 283 283 284 283 283 282 281 280 280 279 279 278 270 271 277 278 272 262 253 254 257 260 267 272 272 265 254 246 236 234 234 233 237 240 242 251 264 270 277 291 330 342 315 288 287 310 273 207 262 292 298 284 238 214 182 162 216 259 263 271 273 279 275 280 288 286 288 293 306 321 326 335 31 81
257 261 262 264 264 266 268 269 271 272 274 276 278 280 281 283 285 284 283 280 280 278 274 274 272 260 266 279 277 269 265 251 246 253 252 254 262 267 272 263 242 233 227 229 235 236 243 250 252 255 260 268 251 120 38 358 320 315 195 245 253 226 258 296 307 301 159 142 220 211 236 264 270 266 269 276 274 280 284 282 286 296 312 333 7 64 93 89
255 257 258 260 259 261 263 264 268 270 273 276 278 280 283 287 288 284 280 276 274 271 267 261 254 252 258 266 269 265 260 252 247 244 241 246 253 260 267 248 218 217 218 223 233 236 241 235 213 239 248 240 157 110 51 324 281 301 241 228 243 238 241 269 305 320 128 134 257 257 239 250 269 270 272 278 279 279 278 280 290 301 313 18 79 84 82 78
258 257 256 257 256 259 261 264 269 272 276 279 283 288 292 290 283 278 274 271 266 261 265 240 211 260 260 250 274 281 264 242 230 227 229 231 241 253 239 228 218 201 197 216 229 210 210 208 164 191 279 192 149 132 181 234 219 237 245 252 268 251 246 261 280 289 280 302 298 290 271 259 273 279 276 278 278 274 273 283 298 306 353 91 86 79 76 72
264 261 259 258 257 260 262 268 271 275 279 283 294 299 298 292 281 274 266 256 242 226 252 211 189 197 251 268 296 287 257 226 213 220 235 240 248 250 222 208 214 188 165 174 225 183 171 157 124 159 252 210 204 190 206 220 206 220 238 243 260 259 264 262 260 274 296 311 297 279 276 276 282 281 281 285 286 285 287 295 304 347 96 94 82 79 77 72
266 263 262 261 262 263 264 271 274 280 283 284 297 299 298 305 300 279 260 249 240 241 260 239 230 248 260 279 293 271 252 236 231 242 248 246 239 230 204 183 185 185 166 155 194 188 171 152 164 198 216 215 220 215 216 228 223 235 252 255 258 256 269 271 270 286 303 306 266 265 292 302 295 293 287 288 293 301 301 303 5 88 93 85 82 80 77 76
256 257 261 262 262 266 266 271 272 281 291 285 291 293 298 322 315 289 292 276 264 263 266 262 259 260 263 269 269 267 267 255 247 247 241 227 207 201 193 176 160 198 224 187 143 162 167 182 222 214 216 219 226 226 225 242 241 242 246 253 267 255 261 271 275 289 321 330 264 295 336 311 301 292 284 288 303 326 328 52 93 94 89 83 84 81 80 81
243 242 250 257 259 264 263 270 271 271 284 279 276 278 282 294 278 283 301 289 279 274 267 263 261 257 258 260 260 263 261 250 241 232 226 214 193 192 192 172 162 204 219 174 116 125 174 225 240 226 222 228 246 248 241 253 254 260 265 270 274 263 279 288 296 322 359 357 275 308 319 291 288 279 287 309 18 47 61 88 94 92 89 82 82 82 84 84
243 240 244 252 257 262 259 266 268 262 266 265 264 263 266 280 279 291 297 280 284 283 269 260 256 251 251 253 251 247 241 237 239 226 225 214 189 194 193 173 181 203 202 179 162 172 188 232 240 233 225 230 255 258 254 267 275 271 267 276 278 280 309 287 304 334 336 288 262 299 307 292 280 275 313 32 77 76 73 81 82 83 86 82 83 84 84 84
244 243 247 253 258 264 263 267 269 263 255 247 250 250 258 277 281 304 298 269 279 281 267 257 251 250 246 241 236 231 227 231 242 224 217 208 190 192 198 187 188 194 212 205 189 195 210 226 230 227 213 208 237 259 263 270 287 278 230 225 257 272 263 245 277 321 320 319 348 18 343 307 267 268 325 65 75 72 70 76 76 77 82 85 85 82 82 83
243 244 249 253 261 269 269 269 266 259 247 236 235 237 260 282 288 326 316 286 283 269 259 247 238 242 233 224 223 218 214 223 231 209 200 198 191 188 201 197 193 201 225 222 207 212 237 241 231 233 236 206 211 246 245 216 275 308 246 205 202 199 204 247 322 358 11 334 330 45 8 290 281 291 254 103 67 58 62 68 72 74 79 85 84 82 84 84
242 242 243 249 262 272 274 272 260 248 237 227 223 225 260 276 299 343 343 324 294 249 214 206 209 221 216 213 204 190 195 238 202 184 184 189 192 187 188 200 192 204 220 224 238 225 229 233 214 212 233 199 181 245 232 179 153 293 250 178 160 153 145 344 6 21 54 259 289 60 77 269 312 303 270 112 85 70 66 64 73 77 78 83 84 86 89 88
240 239 239 245 258 268 271 269 254 238 225 224 223 220 242 257 269 8 27 335 284 194 146 160 176 175 180 173 164 156 162 178 155 169 182 188 196 191 202 221 175 211 210 120 2 267 198 148 101 115 141 136 171 255 234 161 140 251 240 148 123 109 323 309 62 356 234 250 315 329 193 255 294 268 255 119 99 84 80 74 78 82 82 85 86 88 90 91
239 240 242 244 252 262 262 256 250 239 229 227 222 220 235 247 216 100 80 266 261 119 125 141 138 154 157 157 158 142 131 144 138 178 191 196 201 185 213 231 168 248 244 126 188 270 215 163 185 142 117 156 208 233 207 145 141 238 223 140 103 126 193 197 142 227 264 12 311 280 190 234 268 263 253 120 123 134 126 119 92 88 88 90 91 90 91 92
242 241 244 246 250 257 253 243 239 238 235 228 224 236 242 219 180 101 127 237 169 95 147 148 124 154 147 148 169 150 132 136 124 166 178 194 196 168 205 233 177 298 276 141 190 259 349 179 202 145 137 204 219 232 174 147 178 216 182 105 35 34 179 135 142 158 359 5 258 252 186 187 268 284 354 105 145 180 156 133 104 96 96 97 98 98 96 95
244 243 242 241 244 252 252 244 240 239 235 230 234 244 227 178 136 115 213 223 91 87 145 144 142 153 143 133 189 185 151 134 125 129 121 160 184 181 23 239 58 49 354 11 260 255 306 11 319 159 190 207 187 119 71 130 165 134 93 43 13 357 21 57 104 106 60 293 251 242 209 188 261 295 216 181 198 172 156 147 132 107 100 101 102 104 103 100
242 244 243 239 239 245 252 251 251 247 238 234 233 215 173 148 126 192 214 192 70 114 130 137 150 147 157 153 169 187 150 132 146 136 106 110 161 215 26 51 37 61 14 342 306 288 331 356 281 241 225 184 121 85 19 41 110 101 76 60 30 337 10 35 5 53 101 256 257 258 219 179 211 268 234 271 290 154 150 156 152 125 110 107 105 107 106 104
243 245 249 248 242 241 247 251 251 241 228 215 190 164 141 132 244 215 231 31 95 189 153 173 188 165 189 172 147 181 153 153 172 152 141 138 146 206 189 171 167 57 334 268 283 313 276 234 239 278 254 188 130 95 337 2 35 83 87 83 75 342 359 13 314 134 200 246 237 201 56 162 217 252 244 23 15 66 103 120 132 126 119 114 110 110 107 104
245 244 245 245 241 240 239 234 220 203 195 168 151 137 108 163 214 190 203 211 188 187 109 127 160 143 152 142 151 188 154 168 181 168 159 139 145 229 243 214 170 142 240 210 296 333 301 295 251 317 290 196 156 153 227 306 88 129 132 130 126 112 61 259 254 244 258 258 238 219 25 293 242 287 32 54 39 64 88 104 117 120 118 115 112 110 106 103
237 234 231 225 220 217 210 198 187 184 178 155 128 89 106 198 215 178 200 215 248 21 44 68 116 115 126 167 194 181 167 216 173 147 126 125 129 233 249 236 198 164 162 180 276 195 233 305 222 186 237 178 172 190 177 142 147 179 163 141 141 152 183 225 225 220 256 272 272 281 314 212 202 315 52 87 81 83 94 106 113 114 117 117 114 111 106 102
203 200 201 196 190 186 184 185 185 182 176 158 130 106 199 201 221 183 208 211 126 95 10 29 101 116 208 235 223 191 185 239 169 130 150 169 176 203 199 213 202 179 140 162 245 179 189 265 243 220 163 160 175 206 155 110 94 232 139 113 165 190 174 210 233 196 192 282 289 260 244 213 145 87 73 94 88 87 98 109 113 115 121 123 119 113 109 105
188 187 188 187 184 182 182 188 191 190 182 162 142 213 215 202 184 191 216 182 157 145 120 44 80 140 237 261 255 230 162 164 156 126 211 199 199 215 208 207 190 180 167 166 213 184 161 263 271 14 44 184 187 196 149 116 209 188 97 179 223 180 132 128 282 310 99 254 269 198 240 291 92 97 63 80 82 86 98 108 115 122 128 128 125 120 117 112
205 206 207 201 194 190 190 194 198 198 185 166 185 223 203 201 210 211 331 91 132 129 131 161 176 175 216 244 231 212 141 47 159 140 214 221 229 217 204 216 185 184 191 183 215 214 169 265 271 138 206 237 188 114 63 33 102 135 169 220 217 88 82 107 246 337 29 255 267 213 228 243 202 211 58 98 117 120 121 120 123 132 139 138 134 131 127 119
227 228 229 219 208 202 197 198 205 203 185 176 225 229 197 201 213 214 218 138 110 89 120 199 202 170 194 215 227 199 163 177 176 163 196 230 239 195 169 200 61 173 198 184 186 238 144 287 285 225 187 249 59 88 23 1 45 118 173 207 115 97 296 97 153 226 231 241 271 279 260 236 208 199 176 182 179 159 159 154 144 155 158 153 147 142 138 129
231 233 239 230 220 215 208 204 207 205 194 195 224 226 206 205 212 215 219 208 153 117 155 212 207 200 207 196 191 175 175 192 179 173 182 202 232 191 111 176 87 50 170 160 163 240 123 142 280 308 186 199 47 74 211 280 357 50 57 351 61 152 190 198 184 181 198 227 258 283 286 266 230 191 172 189 188 170 169 164 167 182 174 163 156 150 148 144
230 227 242 230 220 218 213 209 209 205 204 222 220 212 177 200 218 223 227 226 183 166 206 209 200 220 227 211 197 177 198 216 190 192 213 201 233 300 56 61 99 44 49 102 126 70 81 172 240 311 335 156 150 190 191 198 200 82 98 263 250 207 203 269 237 157 158 212 240 262 272 264 248 203 185 194 185 162 160 157 177 191 182 170 164 160 164 166
222 222 245 221 212 209 199 197 207 203 215 240 226 211 212 207 214 226 231 229 212 197 201 191 196 211 215 216 205 165 177 218 198 195 225 227 250 263 93 16 342 276 42 60 79 96 169 185 195 255 306 204 224 224 187 177 165 153 173 197 202 198 189 264 258 206 168 210 229 246 264 270 267 307 219 167 150 150 163 167 181 191 184 179 182 182 185 185
201 211 239 210 202 194 185 186 203 196 215 233 213 204 213 205 191 206 213 213 208 194 187 193 201 206 210 221 222 167 170 212 205 192 230 240 237 210 164 61 359 356 86 103 161 145 109 115 150 224 222 213 232 244 132 149 138 134 178 186 174 169 156 213 247 245 207 257 301 254 262 276 309 318 353 122 149 167 175 176 182 190 191 193 196 196 198 198
192 200 201 194 192 182 177 194 220 197 222 223 202 211 213 202 196 198 196 197 199 167 178 208 198 207 222 205 218 226 168 185 222 211 223 238 236 284 343 184 26 43 73 132 236 44 72 85 128 270 285 277 291 351 22 58 103 125 284 117 159 184 164 188 228 211 177 257 278 271 256 258 311 332 15 107 154 170 180 185 187 191 197 201 200 198 200 197
194 199 186 184 186 180 181 217 210 203 228 216 208 228 224 222 212 199 188 190 192 169 162 204 197 204 216 184 193 214 181 190 241 225 208 207 201 356 7 233 184 84 73 175 185 141 137 109 118 226 294 299 314 345 357 7 64 152 258 289 211 189 130 109 146 157 201 223 230 244 246 234 266 341 30 100 164 184 198 199 197 197 197 199 197 195 195 193
179 197 199 195 189 188 202 236 181 201 222 213 228 233 222 239 224 206 201 194 192 176 152 223 206 192 197 183 195 213 198 200 233 223 167 144 151 40 45 75 130 115 96 115 125 133 154 162 140 158 224 245 252 237 212 337 18 168 260 284 280 202 171 144 72 244 243 230 223 241 247 266 296 308 294 249 222 219 223 214 207 206 201 197 196 196 198 193
167 188 197 192 192 202 222 237 216 208 207 196 227 230 214 235 237 206 202 205 207 195 184 235 210 183 195 184 178 212 214 198 193 177 123 120 272 326 43 78 105 115 110 98 97 108 114 192 182 172 210 232 226 209 168 106 91 275 281 275 270 250 213 193 244 242 235 313 270 250 244 261 276 264 229 227 231 235 237 219 203 200 200 199 198 197 195 187
170 203 181 172 192 211 225 229 216 212 213 190 204 221 209 217 233 215 209 211 205 196 198 229 200 182 200 188 176 214 216 183 195 204 170 149 185 335 38 73 93 116 120 96 81 97 96 269 230 187 223 246 222 216 213 104 161 222 251 263 269 269 246 220 233 233 179 272 263 256 250 248 261 264 241 211 214 224 232 226 216 206 200 198 195 191 188 185
183 266 194 175 187 211 215 216 209 208 228 224 224 263 214 200 202 211 212 208 196 191 192 218 204 190 186 175 170 199 196 189 215 209 171 147 133 75 23 15 50 127 118 78 71 103 111 248 247 185 239 266 266 267 302 16 194 208 226 248 261 263 254 242 244 234 209 239 259 265 266 259 259 266 259 235 235 238 240 245 241 223 203 194 191 187 186 188
211 275 240 190 204 225 204 205 204 208 222 226 241 264 222 192 207 213 191 162 203 205 193 201 208 191 178 166 157 179 189 185 210 217 168 139 138 138 128 347 331 157 96 68 62 95 101 242 260 148 251 272 272 268 298 304 259 254 250 249 252 256 257 256 253 241 227 239 255 264 269 267 262 260 263 273 275 264 247 241 227 205 194 189 188 187 189 193
206 260 273 257 261 244 203 197 196 206 218 216 229 240 212 210 229 221 169 172 191 213 194 190 187 170 170 165 160 192 201 164 168 192 164 146 151 164 178 196 184 139 74 70 355 37 92 190 221 92 323 287 288 147 159 218 243 267 269 260 255 257 261 256 251 251 249 251 252 255 262 265 267 276 284 275 263 228 145 159 174 182 185 185 186 189 190 187
210 254 296 331 297 222 203 188 185 198 214 212 223 224 204 221 221 190 293 212 176 183 197 181 163 126 120 149 167 197 187 143 139 149 145 146 160 163 173 175 152 131 118 157 177 32 89 173 2 77 73 283 308 100 183 236 266 274 268 261 256 252 250 247 245 237 239 248 254 254 253 257 269 285 280 231 175 140 122 126 145 163 175 179 180 179 177 176
228 260 267 301 311 226 208 165 173 198 207 202 217 223 218 225 217 194 249 285 119 144 195 176 157 123 119 175 187 186 161 139 131 133 129 123 126 118 102 145 151 146 153 160 159 145 133 142 172 120 161 267 275 122 166 63 341 272 260 252 250 248 243 247 251 242 237 241 247 246 246 249 248 237 227 196 148 137 125 119 133 154 168 179 184 182 185 189